カタログに戻る

SL-14 DEB *

運用中PO
NORAD 47086·DEBRIS·🇷🇺 Russia

打ち上げ Aug 15, 1991 から Plesetsk Cosmodrome

Loading…

次のパス (今後24時間)

TLE

最新Source: Space-Track

元期: Sep 13, 2026, 10:54 UTC

1 47086U 91056DL  26256.45425013  .00000686  00000-0  29476-3 0  9992
2 47086  82.5534 162.3284 0011076  78.8740 281.3687 14.23418563302691

AllMySatでSL-14 DEB *をリアルタイム追跡

Download on the App Store